Peachtree City, GA

10:50 AM EST on November 20, 2017 (GMT -0500)
Peachtree City-Falcon

Weather History for KFFC - April, 2014

Change the Weather History Date:

Friday, April 4, 2014

  Actual Average Record
Temperature  
Mean Temperature 69 °F 58 °F  
Max Temperature 79 °F 71 °F 84 °F (2011)
Min Temperature 58 °F 44 °F 36 °F (2005)
Degree Days  
Heating Degree Days 0 8  
Month to date heating degree days 7 32  
Since 1 July heating degree days 2953 2784  
Cooling Degree Days 4 0  
Month to date cooling degree days 6 0  
Year to date cooling degree days 6 5  
Growing Degree Days 20 (Base 50)    
Moisture  
Dew Point 56 °F    
Average Humidity 64    
Maximum Humidity 90    
Minimum Humidity 37    
Precipitation  
Precipitation T in 0.14 in 0.49 in (2013)
Month to date precipitation T 0.66  
Year to date precipitation 10.39 14.87  
Snow  
Snow 0.00 in - - ()
Month to date snowfall  
Since 1 July snowfall 1.8  
Snow Depth -    
Sea Level Pressure  
Sea Level Pressure 29.95 in    
Wind  
Wind Speed 8 mph (WSW)    
Max Wind Speed 17 mph    
Max Gust Speed 28 mph    
Visibility 10 miles    
Events      
T = Trace of Precipitation, MM = Missing Value Source: NWS Daily Summary

Daily Weather History Graph

Daily Weather History Graph

Search for Another Location

Airport or City:

Trip Planner

Search our weather history database for the weather conditions in past years. The results will help you decide how hot, cold, wet, or windy it might be!

Date:

Astronomy

Apr. 04, 2014 Rise Set
Actual Time 7:22 AM EDT 8:00 PM EDT
Civil Twilight 6:56 AM EDT 8:26 PM EDT
Nautical Twilight 6:27 AM EDT 8:55 PM EDT
Astronomical Twilight 5:57 AM EDT 9:25 PM EDT
Moon 10:48 AM EDT (4/4) 12:08 AM EDT (4/4)
Length of Visible Light 13h 29m
Length of Day
12h 38m
Waxing Crescent, 25% of the Moon is Illuminated
Apr 4
Waxing Crescent
Apr 7
First Quarter
Apr 15
Full
Apr 22
Last Quarter
Apr 29
New

Hourly Weather History & Observations

Time (EDT) Temp. Dew Point Humidity Pressure Visibility Wind Dir Wind Speed Gust Speed Precip Events Conditions
12:53 AM 66.9 °F 55.0 °F 66% 29.97 in 10.0 mi Variable 5.8 mph - N/A   Clear
1:53 AM 66.0 °F 55.9 °F 70% 29.93 in 10.0 mi SSW 4.6 mph - N/A   Clear
2:53 AM 64.0 °F 55.9 °F 75% 29.94 in 10.0 mi Calm Calm - N/A   Clear
3:53 AM 64.0 °F 57.0 °F 78% 29.94 in 10.0 mi Variable 4.6 mph - N/A   Clear
4:49 AM 62.6 °F 57.2 °F 82% 29.92 in 10.0 mi South 3.5 mph - N/A   Mostly Cloudy
4:53 AM 63.0 °F 57.9 °F 84% 29.91 in 10.0 mi Variable 4.6 mph - N/A   Mostly Cloudy
5:53 AM 63.0 °F 59.0 °F 87% 29.93 in 10.0 mi North - - N/A   Overcast
6:49 AM 64.4 °F 59.0 °F 83% 29.94 in 10.0 mi Variable 3.5 mph - N/A   Overcast
6:53 AM 64.0 °F 60.1 °F 87% 29.93 in 10.0 mi SW 4.6 mph - N/A   Overcast
7:01 AM 64.0 °F 60.1 °F 87% 29.94 in 10.0 mi Variable 4.6 mph - N/A   Overcast
7:53 AM 64.0 °F 60.1 °F 87% 29.94 in 10.0 mi SW 10.4 mph 17.3 mph N/A   Overcast
8:53 AM 64.9 °F 60.1 °F 84% 29.94 in 10.0 mi SSW 8.1 mph 16.1 mph N/A   Mostly Cloudy
9:17 AM 66.0 °F 60.1 °F 81% 29.99 in 10.0 mi WSW 11.5 mph 19.6 mph N/A   Overcast
9:53 AM 66.9 °F 60.1 °F 79% 29.99 in 10.0 mi WSW 11.5 mph 23.0 mph N/A   Overcast
10:15 AM 66.9 °F 60.1 °F 79% 30.01 in 10.0 mi SW 10.4 mph 20.7 mph 0.00 in   Overcast
10:53 AM 71.1 °F 55.9 °F 59% 30.01 in 10.0 mi West 12.7 mph 20.7 mph 0.00 in   Scattered Clouds
11:53 AM 73.0 °F 52.0 °F 48% 30.01 in 10.0 mi West 13.8 mph 23.0 mph N/A   Scattered Clouds
12:53 PM 75.9 °F 51.1 °F 42% 29.97 in 10.0 mi West 9.2 mph - N/A   Mostly Cloudy
1:53 PM 78.1 °F 50.0 °F 37% 29.98 in 10.0 mi West 12.7 mph 18.4 mph N/A   Scattered Clouds
2:53 PM 77.0 °F 50.0 °F 39% 29.95 in 10.0 mi SW 9.2 mph 17.3 mph N/A   Mostly Cloudy
3:53 PM 75.9 °F 50.0 °F 40% 29.92 in 10.0 mi SSW 8.1 mph 19.6 mph N/A   Mostly Cloudy
4:53 PM 73.9 °F 51.1 °F 45% 29.94 in 10.0 mi WSW 11.5 mph 23.0 mph N/A   Mostly Cloudy
5:53 PM 72.0 °F 53.1 °F 51% 29.93 in 10.0 mi WSW 12.7 mph 20.7 mph N/A   Overcast
6:53 PM 71.1 °F 54.0 °F 55% 29.89 in 10.0 mi Variable 5.8 mph - N/A   Partly Cloudy
7:53 PM 68.0 °F 55.9 °F 65% 29.95 in 10.0 mi WNW 10.4 mph - N/A   Clear
8:53 PM 64.9 °F 55.9 °F 73% 29.96 in 10.0 mi WNW 5.8 mph - N/A   Partly Cloudy
9:53 PM 64.0 °F 55.9 °F 75% 29.99 in 10.0 mi West 3.5 mph - N/A   Clear
10:53 PM 62.1 °F 55.9 °F 80% 29.98 in 10.0 mi WSW 3.5 mph - N/A   Scattered Clouds
11:53 PM 61.0 °F 55.9 °F 83% 29.98 in 10.0 mi WNW 3.5 mph - N/A   Clear